CZ-6A DEB

Satellite information

Favourite Embed

Satellite Type and Status

DEBRISIN ORBIT

Key statistics

Satellite CZ-6A DEB at a glance.

Uptime

1088

Days in orbit

Revolutions

≈ 14.1

Per day

Orbit

SSO

Sun Synchronous Orbit

Inclination

98.8

Latest

Satellite identification and parameters

Extended collection of information and parameters for CZ-6A DEB.

Object identification

Identified? True

Debris? True

Object name: CZ-6A DEB

International designator: 2022-151TE

Object number (NORAD): 54965

Object ID (CCSDS): 54965

Country: PEOPLES REPUBLIC OF CHINA (PRC)

Current information (Y/N): Y

RCS size: SMALL

Orbital parameters

Period: 102.44 minutes

Inclination: 98.8085 deg

SMA: 7252.234 km

Apoapsis: 936.929 km

Periapsis: 811.27 km

RAAN: 290.3042 deg

Eccentricy: 0.0086635

Argument of periapsis: 309.0786 deg

Mean anomaly: 50.2698 deg

Mean motion: 14.05707713 rev/day

Mean motion (dot): 0.00000926 rev/day2

B* drag term: 0.0005751 1/REarth

Two-line elements (TLE)

Creation date: Nov. 2, 2025, 4:06 p.m.

Reference frame: TEME

Reference center: EARTH

Epoch: Nov. 2, 2025, 10:41 a.m. UTC

TLE line 0: 0 CZ-6A DEB

TLE line 1: 1 54965U 22151TE 25306.44580841 .00000926 00000-0 57510-3 0 9998

TLE line 2: 2 54965 98.8085 290.3042 0086635 309.0786 50.2698 14.05707713152306

Live tracking on map

Real-time ground track for satellite CZ-6A DEB.

In-orbit conjunctions

A list of the most updated potential collisions computed for object CZ-6A DEB.

Target Orbit TCA Probability of collision Miss distance Type
SL-12 R/B(AUX MOTOR) HEO 2025-01-07 15:18:31 0.003570091 25.0 (m) ROCKET BODY
COSMOS 1275 DEB LEO 2024-12-23 19:56:53 0.0003319385 50.0 (m) DEBRIS
SL-16 DEB LEO 2024-06-26 13:39:37 0.000233373 107.0 (m) DEBRIS

Associated space launch

Chinese satellite reported for atmospheric/ocean/environmental/spatial parameter research purposes, details TBD.

CZ-6A DEB was lifted into orbit during the mission ‘Long March 6A | Yunhai 3’, on board a Long March 6A space rocket.

The launch took place on Nov. 11, 2022, 10:52 p.m. from Launch Complex 9A.

For more information about the launch, click the button.

Launch to space Long March 6A | Yunhai 3
Long March 6A | Yunhai 3

Agency: N/A

Status: Launch Successful

Launch date: Nov. 11, 2022, 10:52 p.m. UTC

Rocket: Long March 6A

Launch pad: Launch Complex 9A

Location: Taiyuan Satellite Launch Center, People's Republic of China

...

Latest news about this satellite

There are no fresh news available about this satellite. Check back as we update our databases every day.


Newsletter sign-up

Weekly statistics, charts and insights to help you stay on top of the space industry.